Weather History for KLAR - August, 2014

Change the Weather History Date:

Tuesday, August 19, 2014

  Actual Average Record
Temperature  
Mean Temperature 62 °F 62 °F  
Max Temperature 80 °F 78 °F 88 °F (2013)
Min Temperature 44 °F 47 °F 28 °F (1978)
Degree Days  
Heating Degree Days 3 3  
Month to date heating degree days 48 46  
Since 1 June heating degree days 345 356  
Since 1 July heating degree days 103 115  
Cooling Degree Days 0 0  
Month to date cooling degree days 2 17  
Year to date cooling degree days 67 64  
Since 1 June cooling degree days 67 64  
Growing Degree Days 12 (Base 50)    
Moisture  
Dew Point 42 °F    
Average Humidity 58    
Maximum Humidity 93    
Minimum Humidity 22    
Precipitation  
Precipitation 0.06 in 0.03 in 0.46 in (1958)
Month to date precipitation 0.63 0.81  
Year to date precipitation 9.79 7.73  
Sea Level Pressure  
Sea Level Pressure 29.78 in    
Wind  
Wind Speed 11 mph (SSW)    
Max Wind Speed 32 mph    
Max Gust Speed 38 mph    
Visibility 10 miles    
Events Rain    
T = Trace of Precipitation, MM = Missing Value Source: NWS Daily Summary

Daily Weather History Graph

Daily Weather History Graph

Search for Another Location

Airport or City:

Trip Planner

Search our weather history database for the weather conditions in past years. The results will help you decide how hot, cold, wet, or windy it might be!

Date:

Astronomy

Aug. 19, 2014 Rise Set
Actual Time 6:15 AM MDT 7:55 PM MDT
Civil Twilight 5:46 AM MDT 8:25 PM MDT
Nautical Twilight 5:11 AM MDT 9:00 PM MDT
Astronomical Twilight 4:33 AM MDT 9:38 PM MDT
Moon 1:08 AM MDT (8/19) 3:55 PM MDT (8/19)
Length of Visible Light 14h 38m
Length of Day
13h 39m
Waning Crescent, 28% of the Moon is Illuminated
Aug 19
Waning Crescent
Aug 25
New
Sep 2
First Quarter
Sep 8
Full
Sep 15
Last Quarter

Hourly Weather History & Observations

Time (MDT) Temp. Windchill Dew Point Humidity Pressure Visibility Wind Dir Wind Speed Gust Speed Precip Events Conditions
12:53 AM 57.9 °F - 42.1 °F 56% 29.79 in 10.0 mi South 15.0 mph - N/A   Clear
1:53 AM 55.9 °F - 42.1 °F 60% 29.77 in 10.0 mi South 11.5 mph - N/A   Clear
2:53 AM 53.1 °F - 43.0 °F 69% 29.78 in 10.0 mi SSE 10.4 mph - N/A   Clear
3:53 AM 48.9 °F - 42.1 °F 77% 29.78 in 10.0 mi South 9.2 mph - N/A   Clear
4:53 AM 48.0 °F - 39.9 °F 74% 29.79 in 10.0 mi WSW 8.1 mph - N/A   Clear
5:53 AM 46.0 °F 43.1 °F 37.9 °F 73% 29.81 in 10.0 mi SSE 5.8 mph - N/A   Clear
6:53 AM 48.9 °F - 39.0 °F 69% 29.80 in 10.0 mi South 5.8 mph - N/A   Clear
7:53 AM 57.0 °F - 39.0 °F 51% 29.81 in 10.0 mi SW 8.1 mph - N/A   Clear
8:53 AM 62.1 °F - 39.0 °F 43% 29.82 in 10.0 mi SSW 6.9 mph - N/A   Clear
9:53 AM 73.0 °F - 37.0 °F 27% 29.79 in 10.0 mi WSW 19.6 mph - N/A   Clear
10:53 AM 73.0 °F - 37.9 °F 28% 29.80 in 10.0 mi WSW 19.6 mph 26.5 mph N/A   Clear
11:53 AM 75.9 °F - 39.0 °F 26% 29.77 in 10.0 mi SW 16.1 mph 25.3 mph N/A   Clear
12:53 PM 77.0 °F - 35.1 °F 22% 29.74 in 10.0 mi West 9.2 mph 18.4 mph N/A   Clear
1:53 PM 78.1 °F - 37.9 °F 24% 29.73 in 10.0 mi SW 12.7 mph 19.6 mph N/A   Clear
2:53 PM 75.0 °F - 37.0 °F 25% 29.76 in 10.0 mi SW 15.0 mph - N/A   Mostly Cloudy
3:53 PM 73.9 °F - 42.1 °F 32% 29.78 in 10.0 mi ESE 9.2 mph 18.4 mph 0.00 in   Mostly Cloudy
4:53 PM 70.0 °F - 43.0 °F 38% 29.78 in 10.0 mi ENE 11.5 mph - N/A   Mostly Cloudy
5:53 PM 70.0 °F - 41.0 °F 35% 29.77 in 10.0 mi NE 6.9 mph - N/A   Clear
6:53 PM 68.0 °F - 42.1 °F 39% 29.75 in 10.0 mi NE 6.9 mph - N/A   Clear
7:53 PM 66.0 °F - 43.0 °F 43% 29.73 in 10.0 mi North 4.6 mph - N/A   Overcast
8:53 PM 63.0 °F - 44.1 °F 50% 29.78 in 10.0 mi SW 25.3 mph 31.1 mph N/A   Mostly Cloudy
9:11 PM 55.0 °F - 50.0 °F 83% 30.10 in 7.0 mi SSW 19.6 mph 25.3 mph 0.02 in Rain Light Rain
9:53 PM 55.0 °F - 51.1 °F 86% 29.75 in 10.0 mi South 9.2 mph - 0.06 in   Mostly Cloudy
10:53 PM 54.0 °F - 52.0 °F 93% 29.72 in 10.0 mi SE 5.8 mph - N/A   Clear
11:53 PM 55.0 °F - 52.0 °F 89% 29.71 in 10.0 mi SSW 8.1 mph - N/A   Partly Cloudy